Zurück zum Katalog

STARLINK-6188

AktivKommunikationVLEO
NORAD 56376·PAYLOAD·🇺🇸 United States

Gestartet May 4, 2023 von Cape Canaveral Space Force Station

Loading…

Nächste Überflüge (nächste 24 Stunden)

TLE

AktuellSource: CelesTrak SupGP

Epoche: Sep 15, 2026, 02:06 UTC

1 56376C 23061C   26258.08798611 -.00015210  00000+0 -55108-3 0  2582
2 56376  43.0030 207.9660 0001269 276.3515 290.7007 15.27575780    19

Verfolge STARLINK-6188 in Echtzeit mit AllMySat

Download on the App Store